Time,TemperatureF,DewpointF,PressureIn,WindDirection,WindDirectionDegrees,WindSpeedMPH,WindSpeedGustMPH,Humidity,HourlyPrecipIn,Conditions,Clouds,dailyrainin,SoftwareType,DateUTC
2013-06-06 00:02:00,69.0,64.0,29.95,NW,309,0.0,-999.0,85,-99.99,,,-99.99,,2013-06-06 05:02:00,
2013-06-06 00:12:00,68.0,63.0,29.95,NNW,328,0.0,-999.0,85,-99.99,,,-99.99,,2013-06-06 05:12:00,
2013-06-06 00:22:00,68.0,63.0,29.95,NNW,328,0.0,-999.0,85,-99.99,,,-99.99,,2013-06-06 05:22:00,
2013-06-06 00:32:00,68.0,63.0,29.95,North,356,0.0,-999.0,85,-99.99,,,-99.99,,2013-06-06 05:32:00,
2013-06-06 00:42:00,68.0,63.0,29.95,North,356,0.0,-999.0,85,-99.99,,,-99.99,,2013-06-06 05:42:00,
2013-06-06 00:52:00,68.0,63.0,29.95,NNW,330,0.0,-999.0,85,-99.99,,,-99.99,,2013-06-06 05:52:00,
2013-06-06 01:02:00,67.0,63.0,29.95,NW,305,0.0,-999.0,86,-99.99,,,-99.99,,2013-06-06 06:02:00,
2013-06-06 01:12:00,67.0,63.0,29.96,NNW,339,0.0,-999.0,87,-99.99,,,-99.99,,2013-06-06 06:12:00,
2013-06-06 01:22:00,67.0,63.0,29.96,NNW,339,0.0,-999.0,87,-99.99,,,-99.99,,2013-06-06 06:22:00,
2013-06-06 01:32:00,67.0,63.0,29.96,North,357,0.0,-999.0,86,-99.99,,,-99.99,,2013-06-06 06:32:00,
2013-06-06 01:42:00,67.0,63.0,29.96,North,357,0.0,-999.0,86,-99.99,,,-99.99,,2013-06-06 06:42:00,
2013-06-06 01:52:00,67.0,63.0,29.96,NNW,330,0.0,-999.0,86,-99.99,,,-99.99,,2013-06-06 06:52:00,
2013-06-06 02:02:00,67.0,63.0,29.96,NNW,329,0.0,-999.0,87,-99.99,,,-99.99,,2013-06-06 07:02:00,
2013-06-06 02:12:00,67.0,63.0,29.96,NNW,329,0.0,-999.0,87,-99.99,,,-99.99,,2013-06-06 07:12:00,
2013-06-06 02:22:00,67.0,63.0,29.96,NW,313,0.0,-999.0,87,-99.99,,,-99.99,,2013-06-06 07:22:00,
2013-06-06 02:32:00,67.0,63.0,29.96,WNW,292,0.0,-999.0,87,-99.99,,,-99.99,,2013-06-06 07:32:00,
2013-06-06 02:42:00,67.0,63.0,29.96,WNW,292,0.0,-999.0,87,-99.99,,,-99.99,,2013-06-06 07:42:00,
2013-06-06 02:52:00,67.0,63.0,29.97,NW,308,0.0,-999.0,86,-99.99,,,-99.99,,2013-06-06 07:52:00,
2013-06-06 03:02:00,67.0,63.0,29.97,NW,308,0.0,-999.0,86,-99.99,,,-99.99,,2013-06-06 08:02:00,
2013-06-06 03:12:00,66.0,62.0,29.94,NNW,328,0.0,-999.0,87,-99.99,,,-99.99,,2013-06-06 08:12:00,
2013-06-06 03:22:00,66.0,62.0,29.94,NNW,328,0.0,-999.0,87,-99.99,,,-99.99,,2013-06-06 08:22:00,
2013-06-06 03:32:00,65.0,61.0,29.94,NNW,337,0.0,-999.0,88,-99.99,,,-99.99,,2013-06-06 08:32:00,
2013-06-06 03:42:00,65.0,61.0,29.93,NW,326,0.0,-999.0,88,-99.99,,,-99.99,,2013-06-06 08:42:00,
2013-06-06 03:52:00,65.0,61.0,29.93,NW,326,0.0,-999.0,88,-99.99,,,-99.99,,2013-06-06 08:52:00,
2013-06-06 04:02:00,65.0,62.0,29.93,NNW,336,0.0,-999.0,89,-99.99,,,-99.99,,2013-06-06 09:02:00,
2013-06-06 04:12:00,65.0,62.0,29.91,NNW,342,0.0,-999.0,89,-99.99,,,-99.99,,2013-06-06 09:12:00,
2013-06-06 04:22:00,65.0,62.0,29.91,NNW,342,0.0,-999.0,89,-99.99,,,-99.99,,2013-06-06 09:22:00,
2013-06-06 04:33:00,65.0,62.0,29.91,North,360,0.0,-999.0,89,-99.99,,,-99.99,,2013-06-06 09:33:00,
2013-06-06 04:43:00,65.0,62.0,29.91,North,360,0.0,-999.0,89,-99.99,,,-99.99,,2013-06-06 09:43:00,
2013-06-06 04:53:00,64.0,61.0,29.92,NW,323,0.0,-999.0,90,-99.99,,,-99.99,,2013-06-06 09:53:00,
2013-06-06 05:03:00,64.0,61.0,29.92,NW,326,0.0,-999.0,89,-99.99,,,-99.99,,2013-06-06 10:03:00,
2013-06-06 05:12:00,64.0,61.0,29.91,NNW,347,0.0,-999.0,89,-99.99,,,-99.99,,2013-06-06 10:12:00,
2013-06-06 05:22:00,64.0,61.0,29.91,NNW,347,0.0,-999.0,89,-99.99,,,-99.99,,2013-06-06 10:22:00,
2013-06-06 05:33:00,64.0,61.0,29.91,NNW,347,0.0,-999.0,89,-99.99,,,-99.99,,2013-06-06 10:33:00,
2013-06-06 05:42:00,64.0,61.0,29.91,North,352,1.0,-999.0,89,-99.99,,,-99.99,,2013-06-06 10:42:00,
2013-06-06 05:53:00,64.0,61.0,29.91,North,352,1.0,-999.0,89,-99.99,,,-99.99,,2013-06-06 10:53:00,
2013-06-06 06:02:00,64.0,60.0,29.91,NW,323,0.0,-999.0,88,-99.99,,,-99.99,,2013-06-06 11:02:00,
2013-06-06 06:12:00,64.0,60.0,29.93,West,263,0.0,-999.0,88,-99.99,,,-99.99,,2013-06-06 11:12:00,
2013-06-06 06:22:00,64.0,60.0,29.93,West,263,0.0,-999.0,88,-99.99,,,-99.99,,2013-06-06 11:22:00,
2013-06-06 06:32:00,64.0,60.0,29.93,North,360,0.0,-999.0,88,-99.99,,,-99.99,,2013-06-06 11:32:00,
2013-06-06 06:42:00,64.0,60.0,29.93,North,360,0.0,-999.0,88,-99.99,,,-99.99,,2013-06-06 11:42:00,
2013-06-06 06:52:00,64.0,60.0,29.93,NW,326,0.0,-999.0,88,-99.99,,,-99.99,,2013-06-06 11:52:00,
2013-06-06 07:02:00,64.0,61.0,29.93,NNW,342,0.0,-999.0,89,-99.99,,,-99.99,,2013-06-06 12:02:00,
2013-06-06 07:12:00,64.0,60.0,29.93,NNW,339,0.0,-999.0,88,-99.99,,,-99.99,,2013-06-06 12:12:00,
2013-06-06 07:22:00,64.0,60.0,29.93,NNW,339,0.0,-999.0,88,-99.99,,,-99.99,,2013-06-06 12:22:00,
2013-06-06 07:32:00,64.0,60.0,29.93,NNW,333,0.0,-999.0,88,-99.99,,,-99.99,,2013-06-06 12:32:00,
2013-06-06 07:42:00,65.0,61.0,29.94,NW,323,0.0,-999.0,88,-99.99,,,-99.99,,2013-06-06 12:42:00,
2013-06-06 07:53:00,65.0,61.0,29.94,NW,323,0.0,-999.0,88,-99.99,,,-99.99,,2013-06-06 12:53:00,
2013-06-06 08:03:00,65.0,61.0,29.94,ENE,66,0.0,-999.0,87,-99.99,,,-99.99,,2013-06-06 13:03:00,
2013-06-06 08:12:00,66.0,61.0,29.94,West,265,0.0,-999.0,85,-99.99,,,-99.99,,2013-06-06 13:12:00,
2013-06-06 08:22:00,66.0,61.0,29.94,West,265,0.0,-999.0,85,-99.99,,,-99.99,,2013-06-06 13:22:00,
2013-06-06 08:32:00,66.0,61.0,29.94,NNW,337,0.0,-999.0,84,-99.99,,,-99.99,,2013-06-06 13:32:00,
2013-06-06 08:42:00,67.0,61.0,29.94,West,278,1.0,-999.0,82,-99.99,,,-99.99,,2013-06-06 13:42:00,
2013-06-06 08:53:00,67.0,61.0,29.94,West,278,1.0,-999.0,82,-99.99,,,-99.99,,2013-06-06 13:53:00,
2013-06-06 09:03:00,67.0,61.0,29.94,NNW,340,0.0,-999.0,81,-99.99,,,-99.99,,2013-06-06 14:03:00,
2013-06-06 09:12:00,67.0,61.0,29.94,NNW,340,0.0,-999.0,81,-99.99,,,-99.99,,2013-06-06 14:12:00,
2013-06-06 09:22:00,67.0,61.0,29.94,NNW,340,0.0,-999.0,81,-99.99,,,-99.99,,2013-06-06 14:22:00,
2013-06-06 09:33:00,68.0,61.0,29.94,NNW,330,0.0,-999.0,78,-99.99,,,-99.99,,2013-06-06 14:33:00,
2013-06-06 09:43:00,68.0,61.0,29.94,NNW,330,0.0,-999.0,78,-99.99,,,-99.99,,2013-06-06 14:43:00,
2013-06-06 09:53:00,68.0,61.0,29.94,NNW,330,0.0,-999.0,78,-99.99,,,-99.99,,2013-06-06 14:53:00,
2013-06-06 10:03:00,68.0,60.0,29.95,NW,305,0.0,-999.0,76,-99.99,,,-99.99,,2013-06-06 15:03:00,
2013-06-06 10:12:00,69.0,60.0,29.96,NNW,330,0.0,-999.0,73,-99.99,,,-99.99,,2013-06-06 15:12:00,
2013-06-06 10:23:00,69.0,60.0,29.96,NNW,330,0.0,-999.0,73,-99.99,,,-99.99,,2013-06-06 15:23:00,
2013-06-06 10:33:00,69.0,60.0,29.96,East,83,0.0,-999.0,73,-99.99,,,-99.99,,2013-06-06 15:33:00,
2013-06-06 10:43:00,69.0,60.0,29.96,East,83,0.0,-999.0,73,-99.99,,,-99.99,,2013-06-06 15:43:00,
2013-06-06 10:53:00,70.0,60.0,29.97,North,1,0.0,-999.0,71,-99.99,,,-99.99,,2013-06-06 15:53:00,
2013-06-06 11:03:00,71.0,60.0,29.98,NNW,339,0.0,-999.0,68,-99.99,,,-99.99,,2013-06-06 16:03:00,
2013-06-06 11:12:00,71.0,60.0,29.98,NNW,339,0.0,-999.0,68,-99.99,,,-99.99,,2013-06-06 16:12:00,
2013-06-06 11:23:00,71.0,59.0,29.97,NW,326,0.0,-999.0,67,-99.99,,,-99.99,,2013-06-06 16:23:00,
2013-06-06 11:33:00,71.0,59.0,29.97,NW,318,0.0,-999.0,67,-99.99,,,-99.99,,2013-06-06 16:33:00,
2013-06-06 11:43:00,71.0,59.0,29.97,NW,318,0.0,-999.0,67,-99.99,,,-99.99,,2013-06-06 16:43:00,
2013-06-06 11:53:00,72.0,59.0,29.96,ENE,59,1.0,-999.0,64,-99.99,,,-99.99,,2013-06-06 16:53:00,
2013-06-06 12:03:00,72.0,58.0,29.96,NNW,328,0.0,-999.0,62,-99.99,,,-99.99,,2013-06-06 17:03:00,
2013-06-06 12:13:00,73.0,58.0,29.96,NNW,343,1.0,-999.0,59,-99.99,,,-99.99,,2013-06-06 17:13:00,
2013-06-06 12:22:00,73.0,58.0,29.96,NNW,343,1.0,-999.0,59,-99.99,,,-99.99,,2013-06-06 17:22:00,
2013-06-06 12:32:00,73.0,57.0,29.96,East,83,1.0,-999.0,58,-99.99,,,-99.99,,2013-06-06 17:32:00,
2013-06-06 12:42:00,73.0,57.0,29.96,East,83,1.0,-999.0,58,-99.99,,,-99.99,,2013-06-06 17:42:00,
2013-06-06 12:53:00,74.0,57.0,29.97,NW,323,0.0,-999.0,56,-99.99,,,-99.99,,2013-06-06 17:53:00,
2013-06-06 13:03:00,75.0,58.0,29.97,WSW,254,1.0,-999.0,56,-99.99,,,-99.99,,2013-06-06 18:03:00,
2013-06-06 13:13:00,75.0,58.0,29.97,WSW,254,1.0,-999.0,56,-99.99,,,-99.99,,2013-06-06 18:13:00,
2013-06-06 13:23:00,75.0,56.0,29.97,SSW,213,0.0,-999.0,52,-99.99,,,-99.99,,2013-06-06 18:23:00,
2013-06-06 13:33:00,75.0,57.0,29.97,North,360,0.0,-999.0,53,-99.99,,,-99.99,,2013-06-06 18:33:00,
2013-06-06 13:43:00,75.0,57.0,29.97,North,360,0.0,-999.0,53,-99.99,,,-99.99,,2013-06-06 18:43:00,
2013-06-06 13:53:00,75.0,55.0,29.97,NNW,330,0.0,-999.0,50,-99.99,,,-99.99,,2013-06-06 18:53:00,
2013-06-06 14:03:00,76.0,57.0,29.97,ENE,61,0.0,-999.0,52,-99.99,,,-99.99,,2013-06-06 19:03:00,
2013-06-06 14:12:00,76.0,56.0,29.96,NNW,346,1.0,-999.0,50,-99.99,,,-99.99,,2013-06-06 19:12:00,
2013-06-06 14:23:00,76.0,56.0,29.96,NNW,346,1.0,-999.0,50,-99.99,,,-99.99,,2013-06-06 19:23:00,
2013-06-06 14:33:00,76.0,54.0,29.96,WNW,289,1.0,-999.0,46,-99.99,,,-99.99,,2013-06-06 19:33:00,
2013-06-06 14:42:00,76.0,54.0,29.96,WNW,289,1.0,-999.0,46,-99.99,,,-99.99,,2013-06-06 19:42:00,
2013-06-06 14:53:00,75.0,54.0,29.95,West,270,2.0,-999.0,48,-99.99,,,-99.99,,2013-06-06 19:53:00,
2013-06-06 15:03:00,75.0,53.0,29.95,North,357,3.0,-999.0,46,-99.99,,,-99.99,,2013-06-06 20:03:00,
2013-06-06 15:13:00,75.0,53.0,29.95,NW,309,2.0,-999.0,47,-99.99,,,-99.99,,2013-06-06 20:13:00,
2013-06-06 15:23:00,75.0,53.0,29.95,NW,309,2.0,-999.0,47,-99.99,,,-99.99,,2013-06-06 20:23:00,
2013-06-06 15:33:00,75.0,55.0,29.95,NNW,343,2.0,-999.0,49,-99.99,,,-99.99,,2013-06-06 20:33:00,
2013-06-06 15:42:00,75.0,55.0,29.95,NNW,343,2.0,-999.0,49,-99.99,,,-99.99,,2013-06-06 20:42:00,
2013-06-06 15:53:00,76.0,56.0,29.94,North,6,1.0,-999.0,50,-99.99,,,-99.99,,2013-06-06 20:53:00,
2013-06-06 16:03:00,76.0,54.0,29.94,North,360,1.0,-999.0,46,-99.99,,,-99.99,,2013-06-06 21:03:00,
2013-06-06 16:12:00,76.0,54.0,29.93,WNW,284,3.0,-999.0,46,-99.99,,,-99.99,,2013-06-06 21:12:00,
2013-06-06 16:22:00,76.0,54.0,29.93,WNW,284,3.0,-999.0,46,-99.99,,,-99.99,,2013-06-06 21:22:00,
2013-06-06 16:33:00,77.0,55.0,29.93,West,280,1.0,-999.0,47,-99.99,,,-99.99,,2013-06-06 21:33:00,
2013-06-06 16:43:00,77.0,55.0,29.93,West,280,1.0,-999.0,47,-99.99,,,-99.99,,2013-06-06 21:43:00,
2013-06-06 16:53:00,77.0,52.0,29.93,West,274,3.0,-999.0,42,-99.99,,,-99.99,,2013-06-06 21:53:00,
2013-06-06 17:02:00,76.0,54.0,29.93,West,275,3.0,-999.0,47,-99.99,,,-99.99,,2013-06-06 22:02:00,
2013-06-06 17:13:00,77.0,53.0,29.92,NW,323,2.0,-999.0,43,-99.99,,,-99.99,,2013-06-06 22:13:00,
2013-06-06 17:23:00,77.0,53.0,29.92,NW,323,2.0,-999.0,43,-99.99,,,-99.99,,2013-06-06 22:23:00,
2013-06-06 17:33:00,77.0,53.0,29.92,WNW,295,3.0,-999.0,43,-99.99,,,-99.99,,2013-06-06 22:33:00,
2013-06-06 17:43:00,77.0,53.0,29.92,WNW,295,3.0,-999.0,43,-99.99,,,-99.99,,2013-06-06 22:43:00,
2013-06-06 17:53:00,77.0,53.0,29.92,NNW,337,1.0,-999.0,43,-99.99,,,-99.99,,2013-06-06 22:53:00,
2013-06-06 18:02:00,77.0,52.0,29.92,North,360,2.0,-999.0,42,-99.99,,,-99.99,,2013-06-06 23:02:00,
2013-06-06 18:12:00,77.0,52.0,29.91,NW,319,3.0,-999.0,42,-99.99,,,-99.99,,2013-06-06 23:12:00,
2013-06-06 18:22:00,77.0,52.0,29.91,NW,319,3.0,-999.0,42,-99.99,,,-99.99,,2013-06-06 23:22:00,
2013-06-06 18:33:00,78.0,52.0,29.92,NW,304,1.0,-999.0,41,-99.99,,,-99.99,,2013-06-06 23:33:00,
2013-06-06 18:42:00,78.0,52.0,29.92,NW,304,1.0,-999.0,41,-99.99,,,-99.99,,2013-06-06 23:42:00,
2013-06-06 18:52:00,76.0,52.0,29.91,NW,311,2.0,-999.0,43,-99.99,,,-99.99,,2013-06-06 23:52:00,
2013-06-06 19:02:00,76.0,52.0,29.91,NW,311,2.0,-999.0,44,-99.99,,,-99.99,,2013-06-07 00:02:00,
2013-06-06 19:12:00,76.0,52.0,29.91,NW,311,2.0,-999.0,44,-99.99,,,-99.99,,2013-06-07 00:12:00,
2013-06-06 19:22:00,76.0,52.0,29.91,NNE,21,2.0,-999.0,44,-99.99,,,-99.99,,2013-06-07 00:22:00,
2013-06-06 19:32:00,75.0,53.0,29.91,NNW,329,1.0,-999.0,46,-99.99,,,-99.99,,2013-06-07 00:32:00,
2013-06-06 19:42:00,75.0,53.0,29.91,NNW,329,1.0,-999.0,46,-99.99,,,-99.99,,2013-06-07 00:42:00,
2013-06-06 19:52:00,75.0,52.0,29.91,North,359,1.0,-999.0,44,-99.99,,,-99.99,,2013-06-07 00:52:00,
2013-06-06 20:02:00,75.0,53.0,29.91,West,281,1.0,-999.0,46,-99.99,,,-99.99,,2013-06-07 01:02:00,
2013-06-06 20:12:00,74.0,52.0,29.92,ENE,64,1.0,-999.0,46,-99.99,,,-99.99,,2013-06-07 01:12:00,
2013-06-06 20:22:00,74.0,52.0,29.92,ENE,64,1.0,-999.0,46,-99.99,,,-99.99,,2013-06-07 01:22:00,
2013-06-06 20:32:00,74.0,52.0,29.92,NNW,335,0.0,-999.0,47,-99.99,,,-99.99,,2013-06-07 01:32:00,
2013-06-06 20:42:00,74.0,52.0,29.92,NNW,335,0.0,-999.0,47,-99.99,,,-99.99,,2013-06-07 01:42:00,
2013-06-06 20:52:00,73.0,53.0,29.93,NNW,332,0.0,-999.0,49,-99.99,,,-99.99,,2013-06-07 01:52:00,
2013-06-06 21:02:00,72.0,52.0,29.93,NNW,332,0.0,-999.0,50,-99.99,,,-99.99,,2013-06-07 02:02:00,
2013-06-06 21:12:00,72.0,52.0,29.93,NNW,332,0.0,-999.0,50,-99.99,,,-99.99,,2013-06-07 02:12:00,
2013-06-06 21:22:00,71.0,52.0,29.93,North,360,0.0,-999.0,52,-99.99,,,-99.99,,2013-06-07 02:22:00,
2013-06-06 21:32:00,70.0,52.0,29.93,NW,304,0.0,-999.0,53,-99.99,,,-99.99,,2013-06-07 02:32:00,
2013-06-06 21:42:00,70.0,52.0,29.93,NW,304,0.0,-999.0,53,-99.99,,,-99.99,,2013-06-07 02:42:00,
2013-06-06 21:52:00,70.0,53.0,29.94,NW,312,0.0,-999.0,54,-99.99,,,-99.99,,2013-06-07 02:52:00,
2013-06-06 22:02:00,69.0,52.0,29.94,NW,312,0.0,-999.0,55,-99.99,,,-99.99,,2013-06-07 03:02:00,
2013-06-06 22:12:00,69.0,53.0,29.95,NW,312,0.0,-999.0,57,-99.99,,,-99.99,,2013-06-07 03:12:00,
2013-06-06 22:22:00,69.0,53.0,29.95,NW,312,0.0,-999.0,57,-99.99,,,-99.99,,2013-06-07 03:22:00,
2013-06-06 22:33:00,68.0,53.0,29.95,NW,312,0.0,-999.0,58,-99.99,,,-99.99,,2013-06-07 03:33:00,
2013-06-06 22:43:00,68.0,53.0,29.95,NW,312,0.0,-999.0,58,-99.99,,,-99.99,,2013-06-07 03:43:00,
2013-06-06 22:53:00,67.0,53.0,29.96,NW,312,0.0,-999.0,61,-99.99,,,-99.99,,2013-06-07 03:53:00,
2013-06-06 23:03:00,67.0,54.0,29.96,NW,312,0.0,-999.0,62,-99.99,,,-99.99,,2013-06-07 04:03:00,
2013-06-06 23:12:00,66.0,53.0,29.96,NW,312,0.0,-999.0,63,-99.99,,,-99.99,,2013-06-07 04:12:00,
2013-06-06 23:22:00,66.0,53.0,29.96,NW,312,0.0,-999.0,63,-99.99,,,-99.99,,2013-06-07 04:22:00,
2013-06-06 23:33:00,66.0,53.0,29.96,NW,312,0.0,-999.0,64,-99.99,,,-99.99,,2013-06-07 04:33:00,
2013-06-06 23:42:00,66.0,53.0,29.96,NW,312,0.0,-999.0,64,-99.99,,,-99.99,,2013-06-07 04:42:00,
2013-06-06 23:53:00,66.0,54.0,29.96,NW,312,0.0,-999.0,65,-99.99,,,-99.99,,2013-06-07 04:53:00,